Location: Celina Division
(33.3022°N, 96.7580°W)
Time: 16:28:20
(UTC+00:00)

Cosmos 1812 - Pass Details

Date: 05 July 2022
Orbit: 508 x 515 km, 82.5° (Epoch: 14 August)

Event Time Altitude Azimuth Distance (km) Brightness Sun altitude
Rises 07:34:02 0° 355° (N) 2,630 7.2 -32.0°
Reaches altitude 10° 07:36:10 10° 357° (N) 1,739 6.1 -31.9°
Enters shadow 07:37:16 18° 359° (N) 1,294 5.3 -31.8°
